Regional Weather Roundup
Issued by NWS

Home | Current Version | Previous Version | Graphics & Text | Print | Product List | Glossary Off
Versions: 1 2 3 4 5 6 7 8 9 10 11 12 13 14 15 16 17 18 19 20 21 22 23 24 25 26 27 28 29 30 31 32 33 34 35 36 37 38 39 40 41 42 43 44 45 46 47 48 49 50

000
ASUS43 KMKX 250611
RWRWI

WISCONSIN REGIONAL WEATHER ROUNDUP
NATIONAL WEATHER SERVICE MILWAUKEE/SULLIVAN WI
1200 AM CST THU DEC 25 2014

NOTE: "FAIR" INDICATES FEW OR NO CLOUDS BELOW 12,000 FEET WITH NO
SIGNIFICANT WEATHER AND/OR OBSTRUCTIONS TO VISIBILITY.

WIZ001-002-006>008-014>016-023>028-250700-
NORTHWEST WISCONSIN

CITY           SKY/WX    TMP DP  RH WIND       PRES   REMARKS
SUPERIOR ARPT  CLOUDY    33  30  90 SW8       29.52S WCI  26
6HR MIN TEMP:  32; 6HR MAX TEMP:  33;

ASHLAND        CLOUDY    33  31  92 SW7       29.52S WCI  27
6HR MIN TEMP:  32; 6HR MAX TEMP:  33;

HAYWARD        CLOUDY    32  27  81 SW9       29.53S WCI  24
6HR MIN TEMP:  32; 6HR MAX TEMP:  33;

SIREN          CLOUDY    32  29  90 SW10      29.54F WCI  24
6HR MIN TEMP:  32; 6HR MAX TEMP:  33;

CUMBERLAND     CLOUDY    32  28  86 W10       29.56S WCI  24
RICE LAKE      CLOUDY    33  29  84 SW12      29.58R WCI  24
6HR MIN TEMP:  33; 6HR MAX TEMP:  33;

CHETEK         CLOUDY    32  29  88 SW3       29.57R
6HR MIN TEMP:  32; 6HR MAX TEMP:  33;

LADYSMITH      CLOUDY    33  29  88 W6        29.57R WCI  27
6HR MIN TEMP:  32; 6HR MAX TEMP:  33;

EAU CLAIRE     CLOUDY    33  29  85 SW9       29.59R WCI  25
6HR MIN TEMP:  33; 6HR MAX TEMP:  35;

MENOMONIE      CLOUDY    33  30  86 SW13G18   29.60R WCI  24
6HR MIN TEMP:  33; 6HR MAX TEMP:  35;

NEW RICHMOND   CLOUDY    32  30  93 SW13      29.59S WCI  22
6HR MIN TEMP:  32; 6HR MAX TEMP:  33;

OSCEOLA        CLOUDY    32  32  99 SW14      29.61S WCI  22
6HR MIN TEMP:  32; 6HR MAX TEMP:  34;

$$

WIZ003>005-009-010-017-018-250700-
NORTH CENTRAL WISCONSIN

CITY           SKY/WX    TMP DP  RH WIND       PRES   REMARKS
MANITOWISH WTR CLOUDY    29  29 100 W6        29.48S WCI  23
6HR MIN TEMP:  29; 6HR MAX TEMP:  29;

ARBOR VITAE    CLOUDY    32  30  93 W6        29.49S WCI  26
6HR MIN TEMP:  32; 6HR MAX TEMP:  32;

WOODRUFF       CLOUDY    32  30  93 W6        29.49S WCI  26
6HR MIN TEMP:  32; 6HR MAX TEMP:  32;

RHINELANDER    CLOUDY    30  28  92 W8        29.50R WCI  22
6HR MIN TEMP:  29; 6HR MAX TEMP:  30;

EAGLE RIVER    CLOUDY    30  29  97 W9        29.48R WCI  22
6HR MIN TEMP:  29; 6HR MAX TEMP:  30;

LAND O LAKES   CLOUDY    31  30  96 W7        29.48R WCI  24
6HR MIN TEMP:  30; 6HR MAX TEMP:  31;

PHILLIPS       CLOUDY    30  29  95 W5        29.51S WCI  25
6HR MIN TEMP:  30; 6HR MAX TEMP:  31;

TOMAHAWK       CLOUDY    30  28  92 CALM      29.51S
6HR MIN TEMP:  28; 6HR MAX TEMP:  31;

MEDFORD        CLOUDY    30  28  92 W7        29.54S WCI  23
6HR MIN TEMP:  30; 6HR MAX TEMP:  32;

MERRILL        CLOUDY    32  29  91 W9        29.52S WCI  24
6HR MIN TEMP:  30; 6HR MAX TEMP:  32;

$$

WIZ029-030-035-036-043>047-250700-
CENTRAL WISCONSIN

CITY           SKY/WX    TMP DP  RH WIND       PRES   REMARKS
WAUSAU         MOCLDY    31  27  85 W9        29.53R WCI  23
6HR MIN TEMP:  30; 6HR MAX TEMP:  33;

MOSINEE        PTCLDY    30  30 100 W7        29.55S WCI  23
MARSHFIELD     CLOUDY    33  28  81 W10       29.56R WCI  25
6HR MIN TEMP:  33; 6HR MAX TEMP:  34; 6HR PCP: TRACE;

STEVENS POINT  CLOUDY    31  28  88 W6        29.56S WCI  25
6HR MIN TEMP:  31; 6HR MAX TEMP:  32;

WAUPACA        CLOUDY    36  32  86 W10       29.57R WCI  28
6HR MIN TEMP:  35; 6HR MAX TEMP:  36;

WAUTOMA        CLOUDY    34  32  92 W9        29.59R WCI  27
6HR MIN TEMP:  34; 6HR MAX TEMP:  34;

WISC RAPIDS    CLOUDY    33  27  78 W5        29.58S WCI  29
6HR MIN TEMP:  33; 6HR MAX TEMP:  34;

CAMP DOUGLAS   CLOUDY    33  33 100 W7        29.60R WCI  27
6HR MIN TEMP:  32; 6HR MAX TEMP:  34;

$$

WIZ011>013-019>022-031-037>040-048>050-250700-
NORTHEAST WISCONSIN

CITY           SKY/WX    TMP DP  RH WIND       PRES   REMARKS
ANTIGO         CLOUDY    30  28  94 W9        29.50S WCI  21
6HR MIN TEMP:  30; 6HR MAX TEMP:  30;

SHAWANO        CLOUDY    35  30  83 W8G16     29.53R WCI  29
6HR MIN TEMP:  34; 6HR MAX TEMP:  35;

OCONTO         CLOUDY    33  31  96 W10       29.51R WCI  24
6HR MIN TEMP:  32; 6HR MAX TEMP:  33;

STURGEON BAY   CLOUDY    34  28  80 W10       29.51R WCI  26
6HR MIN TEMP:  32; 6HR MAX TEMP:  34;

GREEN BAY      CLOUDY    34  31  88 W12       29.53R WCI  25
6HR MIN TEMP:  33; 6HR MAX TEMP:  34; 6HR PCP:  0.02;

MANITOWOC      CLOUDY    34  32  92 W12       29.53R WCI  25
6HR MIN TEMP:  34; 6HR MAX TEMP:  35; 6HR PCP: TRACE;

APPLETON       CLOUDY    32  32 100 W12G17    29.55R WCI  23
CLINTONVILLE   MOCLDY    32  30  93 W7        29.54R WCI  26
OSHKOSH        CLOUDY    34  30  85 W9        29.56R WCI  27
6HR MIN TEMP:  34; 6HR MAX TEMP:  34; 6HR PCP: TRACE;

$$

WIZ032>034-041-042-053>061-250700-
SOUTHWEST WISCONSIN

CITY           SKY/WX    TMP DP  RH WIND       PRES   REMARKS
LA CROSSE      CLOUDY    35  29  78 W13       29.63S WCI  26
6HR MIN TEMP:  35; 6HR MAX TEMP:  37;

SPARTA         CLOUDY    33  30  87 W3        29.63R
6HR MIN TEMP:  33; 6HR MAX TEMP:  35;

VIROQUA        CLOUDY    32  32 100 W7        29.62S WCI  26
6HR MIN TEMP:  32; 6HR MAX TEMP:  33;

BOSCOBEL       CLOUDY    36  28  73 W10G17    29.67R WCI  28
6HR MIN TEMP:  36; 6HR MAX TEMP:  37;

PRAIRIE DU CHI CLOUDY    34  28  77 W9        29.68R WCI  26
6HR MIN TEMP:  34; 6HR MAX TEMP:  36;

PLATTEVILLE    CLOUDY    33  30  88 CALM      29.68R
6HR MIN TEMP:  33; 6HR MAX TEMP:  35;

$$

WIZ056-057-062-063-064-067-068-250700-
SOUTH CENTRAL WISCONSIN

CITY           SKY/WX    TMP DP  RH WIND       PRES   REMARKS
REEDSBURG      CLOUDY    33  30  89 W7        29.62R WCI  27
6HR MIN TEMP:  33; 6HR MAX TEMP:  33;

BARABOO/DELLS  CLOUDY    33  30  89 W8        29.61R WCI  26
6HR MIN TEMP:  32; 6HR MAX TEMP:  33;

LONE ROCK      CLOUDY    38  28  67 W7        29.65R WCI  33
6HR MIN TEMP:  38; 6HR MAX TEMP:  39;

MINERAL POINT  CLOUDY    34  30  86 W13       29.65R WCI  25
MADISON        CLOUDY    34  30  85 W8        29.61R WCI  27
6HR MIN TEMP:  34; 6HR MAX TEMP:  35;

MIDDLETON      CLOUDY    35  33  92 W12       29.63R WCI  27
6HR MIN TEMP:  35; 6HR MAX TEMP:  36;

WATERTOWN      CLOUDY    34  32  93 W9        29.60R WCI  27
6HR MIN TEMP:  34; 6HR MAX TEMP:  34;

MONROE         CLOUDY    32  32 100 W15G22    29.64R WCI  22
JANESVILLE     CLOUDY    36  32  87 W10       29.64R WCI  28
$$

WIZ051-052-058>065-066-070>072-250700-
SOUTHEAST WISCONSIN

CITY           SKY/WX    TMP DP  RH WIND       PRES   REMARKS
MILWAUKEE      CLOUDY    36  29  75 W12       29.59R WCI  28
6HR MIN TEMP:  36; 6HR MAX TEMP:  37; 6HR PCP: TRACE;

WAUKESHA       CLOUDY    32  30  93 W12       29.59R WCI  23
MILWAUKEE/TIMM CLOUDY    34  30  86 W12G17    29.59R WCI  25
RACINE         CLOUDY    36  30  79 W13G21    29.60R WCI  27
6HR MIN TEMP:  36; 6HR MAX TEMP:  37;

BURLINGTON     CLOUDY    33  31  92 W8        29.61R WCI  26
6HR MIN TEMP:  33; 6HR MAX TEMP:  34;

KENOSHA        CLOUDY    36  31  82 W13       29.60R WCI  27
6HR MIN TEMP:  36; 6HR MAX TEMP:  37;

FOND DU LAC    CLOUDY    34  30  85 W12       29.56R WCI  25
6HR MIN TEMP:  34; 6HR MAX TEMP:  35; 6HR PCP: TRACE;

SHEBOYGAN      CLOUDY    34  30  85 W13G21    29.54R WCI  25
6HR MIN TEMP:  33; 6HR MAX TEMP:  35; 6HR PCP:  0.01;

WEST BEND      CLOUDY    34  30  86 W13       29.57R WCI  25
JUNEAU         CLOUDY    33  31  93 W9G16     29.59R WCI  25
6HR MIN TEMP:  33; 6HR MAX TEMP:  33;

$$

LSZ147-162-250700-
LAKE SUPERIOR

STATION/POSITION TIME  TEMP    WIND        PRES    WAVE
                       AIR SEA DIR/SP/G            HT/PER
                 (UTC) (F)     (DEG/KT/KT) (MB)    (FT/S)
DEVILS ISLAND    0600   34     240/ 15/ 17  999.4S
PORT WING        0500   33     200/  3/  5  999.7F
SAXON HARBOR     0500   34      CALM  /  4 1000.0R
$$

LMZ867-665-643>646-250700-
LAKE MICHIGAN

STATION/POSITION TIME  TEMP    WIND        PRES    WAVE



USA.gov is the U.S. government's official web portal to all federal, state and local government web resources and services.